Cleveland Burke, OH

12:11 PM EDT on October 22, 2017 (GMT -0400)
Burke Lakefront

Weather History for KBKL - January, 2000

Change the Weather History Date:

Monday, January 10, 2000

  Actual Average Record
Temperature  
Mean Temperature 48 °F -  
Max Temperature 52 °F 33 °F 52 °F (2000)
Min Temperature 43 °F 22 °F 1 °F (2015)
Degree Days  
Heating Degree Days 18    
Moisture  
Dew Point 39 °F    
Average Humidity 77    
Maximum Humidity 93    
Minimum Humidity 56    
Precipitation  
Precipitation 0.12 in - - ()
Sea Level Pressure  
Sea Level Pressure 29.46 in    
Wind  
Wind Speed 14 mph (South)    
Max Wind Speed 30 mph    
Max Gust Speed 40 mph    
Visibility 9 miles    
Events Rain , Thunderstorm    
Averages and records for this station are not official NWS values.
T = Trace of Precipitation, MM = Missing Value Source: NWS Daily Summary

Daily Weather History Graph

Daily Weather History Graph

Search for Another Location

Airport or City:

Trip Planner

Search our weather history database for the weather conditions in past years. The results will help you decide how hot, cold, wet, or windy it might be!

Date:

Astronomy

Jan. 10, 2000 Rise Set
Actual Time 7:52 AM EST 5:15 PM EST
Civil Twilight 7:21 AM EST 5:46 PM EST
Nautical Twilight 6:47 AM EST 6:21 PM EST
Astronomical Twilight 6:14 AM EST 6:54 PM EST
Moon 10:18 AM EST (1/10) 9:10 PM EST (1/10)
Length of Visible Light 10h 24m
Length of Day
9h 22m
Waxing Crescent, 14% of the Moon is Illuminated
Jan 10
Waxing Crescent
Jan 14
First Quarter
Jan 20
Full
Jan 28
Last Quarter
Feb 5
New

Hourly Weather History & Observations

Time (EST) Temp. Windchill Dew Point Humidity Pressure Visibility Wind Dir Wind Speed Gust Speed Precip Events Conditions
12:53 AM 44.1 °F 39.5 °F 39.0 °F 82% 29.74 in 10.0 mi SSE 8.1 mph - N/A   Overcast
1:53 AM 44.1 °F 38.6 °F 39.9 °F 85% 29.70 in 9.0 mi SSE 10.4 mph - N/A   Overcast
2:53 AM 44.1 °F 39.5 °F 39.9 °F 85% 29.67 in 9.0 mi SSE 8.1 mph - N/A   Mostly Cloudy
3:53 AM 43.0 °F 37.7 °F 39.9 °F 89% 29.60 in 10.0 mi SE 9.2 mph - N/A   Scattered Clouds
4:53 AM 43.0 °F 37.7 °F 39.0 °F 86% 29.53 in 9.0 mi SE 9.2 mph - N/A   Clear
5:53 AM 43.0 °F 36.8 °F 39.9 °F 89% 29.50 in 9.0 mi SE 11.5 mph - N/A   Clear
6:53 AM 45.0 °F 38.2 °F 41.0 °F 86% 29.49 in 9.0 mi SSE 15.0 mph 20.7 mph N/A   Partly Cloudy
7:06 AM 44.6 °F 38.4 °F 41.0 °F 87% 29.47 in 8.0 mi SSE 12.7 mph - N/A   Mostly Cloudy
7:27 AM 44.6 °F 38.1 °F 42.8 °F 93% 29.43 in 7.0 mi SSE 13.8 mph - N/A   Mostly Cloudy
7:53 AM 46.0 °F 39.9 °F 43.0 °F 89% 29.42 in 8.0 mi SSE 13.8 mph - N/A   Mostly Cloudy
8:53 AM 48.0 °F - 44.1 °F 86% 29.38 in 7.0 mi South 13.8 mph - N/A   Overcast
9:30 AM 48.2 °F - 44.6 °F 87% 29.35 in 8.0 mi SSE 12.7 mph - N/A   Scattered Clouds
9:53 AM 50.0 °F - 45.0 °F 83% 29.34 in 9.0 mi SSE 15.0 mph - N/A   Mostly Cloudy
10:17 AM 50.0 °F - 46.4 °F 87% 29.35 in 1.0 mi South 12.7 mph - 0.04 in Rain , Thunderstorm Heavy Thunderstorms and Rain
10:32 AM 48.2 °F - 46.4 °F 93% 29.33 in 1.0 mi South 17.3 mph 31.1 mph 0.10 in Rain , Thunderstorm Light Thunderstorms and Rain
10:36 AM 48.2 °F - 44.6 °F 87% 29.33 in 5.0 mi South 17.3 mph 31.1 mph 0.10 in   Overcast
10:53 AM 50.0 °F - 46.0 °F 86% 29.32 in 10.0 mi South 15.0 mph - 0.10 in   Mostly Cloudy
11:53 AM 52.0 °F - 46.0 °F 80% 29.30 in 10.0 mi SSW 16.1 mph 28.8 mph N/A   Overcast
12:53 PM 50.0 °F - 41.0 °F 71% 29.31 in 10.0 mi SSW 23.0 mph 33.4 mph 0.01 in   Scattered Clouds
1:53 PM 48.0 °F - 39.9 °F 74% 29.33 in 10.0 mi WSW 20.7 mph 34.5 mph 0.01 in   Partly Cloudy
3:53 PM 46.0 °F 37.4 °F 36.0 °F 68% 29.40 in 10.0 mi SW 25.3 mph 40.3 mph N/A   Mostly Cloudy
4:53 PM 46.9 °F - 34.0 °F 61% 29.43 in 10.0 mi SW 29.9 mph 35.7 mph N/A   Overcast
5:53 PM 46.9 °F - 34.0 °F 61% 29.46 in 10.0 mi SW 27.6 mph 34.5 mph N/A   Overcast
6:53 PM 46.0 °F 38.0 °F 33.1 °F 61% 29.48 in 10.0 mi SW 21.9 mph 32.2 mph N/A   Clear
7:53 PM 46.9 °F - 32.0 °F 56% 29.50 in 10.0 mi SW 26.5 mph 35.7 mph N/A   Clear
8:53 PM 46.0 °F 38.0 °F 32.0 °F 58% 29.52 in 10.0 mi SW 21.9 mph 34.5 mph N/A   Clear
9:53 PM 46.0 °F 37.8 °F 32.0 °F 58% 29.52 in 10.0 mi SW 23.0 mph 33.4 mph N/A   Clear
10:53 PM 46.0 °F 38.5 °F 30.9 °F 56% 29.52 in 10.0 mi SW 19.6 mph 31.1 mph N/A   Clear
11:53 PM 46.0 °F 37.8 °F 30.9 °F 56% 29.50 in 10.0 mi SW 23.0 mph 31.1 mph N/A   Partly Cloudy